Weather History for Cold Bay, AK

Change the Weather History Date:

Sunday, August 25, 2013

  Actual Average Record
Temperature  
Mean Temperature 57 °F 52 °F  
Max Temperature 62 °F 56 °F 68 °F (1990)
Min Temperature 52 °F 47 °F 36 °F (2002)
Degree Days  
Heating Degree Days 8 13  
Month to date heating degree days 268 325  
Since 1 June heating degree days 1113 1325  
Since 1 July heating degree days 604 763  
Cooling Degree Days 0    
Month to date cooling degree days 0  
Year to date cooling degree days 0  
Since 1 June cooling degree days 0  
Growing Degree Days 6 (Base 50)    
Moisture  
Dew Point 52 °F    
Average Humidity 0    
Maximum Humidity 0    
Minimum Humidity 0    
Precipitation  
Precipitation 0.11 in 0.13 in 0.57 in (1981)
Month to date precipitation 3.69 2.87  
Year to date precipitation 25.15 21.93  
Snow  
Snow 0.00 in 0.00 in T in (1998)
Month to date snowfall 0.0 0.0  
Since 1 June snowfall 0.0 0.0  
Since 1 July snowfall 0.0 0.0  
Snow Depth 0.00 in    
Sea Level Pressure  
Sea Level Pressure 29.88 in    
Wind  
Wind Speed 13 mph (WSW)    
Max Wind Speed 30 mph    
Max Gust Speed 37 mph    
Visibility 9 miles    
Events Rain    
T = Trace of Precipitation, MM = Missing Value Source: NWS Daily Summary

Daily Weather History Graph

Daily Weather History Graph

Search for Another Location

Airport:

Trip Planner

Search our weather history database for the weather conditions in past years. The results will help you decide how hot, cold, wet, or windy it might be!

Date:

Astronomy

Aug. 25, 2013 Rise Set
Actual Time 7:44 AM AKDT 9:59 PM AKDT
Civil Twilight 7:04 AM AKDT 10:39 PM AKDT
Nautical Twilight 6:13 AM AKDT 11:29 PM AKDT
Astronomical Twilight 5:12 AM AKDT 12:30 AM AKDT
Moon 11:32 PM AKDT (8/25) 2:02 PM AKDT (8/25)
Length of Visible Light 15h 34m
Length of Day
14h 15m
Waning Gibbous, 74% of the Moon is Illuminated
Aug 25
Waning Gibbous
Aug 28
Last Quarter
Sep 5
New
Sep 12
First Quarter
Sep 19
Full

Hourly Weather History & Observations

Time (AKDT) Temp. Dew Point Humidity Pressure Visibility Wind Dir Wind Speed Gust Speed Precip Events Conditions
12:01 AM 55.4 °F 53.6 °F 94% 29.88 in 10.0 mi SSE 5.8 mph - N/A   Overcast
12:12 AM 55.4 °F 53.6 °F 94% 29.88 in 10.0 mi South 5.8 mph - N/A   Overcast
12:24 AM 55.4 °F 53.6 °F 94% 29.87 in 10.0 mi SSE 5.8 mph - N/A   Overcast
12:34 AM 57.2 °F 53.6 °F 88% 29.87 in 10.0 mi SSE 5.8 mph - N/A   Overcast
12:53 AM 55.9 °F 54.0 °F 93% 29.87 in 10.0 mi South 4.6 mph - N/A   Overcast
1:00 AM 55.4 °F 53.6 °F 94% 29.87 in 10.0 mi SSE 8.1 mph - N/A   Overcast
1:36 AM 55.4 °F 53.6 °F 94% 29.86 in 10.0 mi SSE 3.5 mph - N/A   Overcast
1:53 AM 61.0 °F 59.0 °F 93% 29.86 in 9.0 mi WSW 10.4 mph - N/A   Overcast
2:16 AM 60.8 °F 59.0 °F 94% 29.85 in 10.0 mi WSW 11.5 mph - N/A   Overcast
2:45 AM 60.8 °F 57.2 °F 88% 29.85 in 6.0 mi WSW 11.5 mph 19.6 mph 0.00 in Rain Light Rain
2:53 AM 61.0 °F 59.0 °F 93% 29.85 in 9.0 mi WSW 5.8 mph - 0.00 in   Overcast
3:12 AM 62.6 °F 59.0 °F 88% 29.85 in 9.0 mi WSW 8.1 mph - N/A   Overcast
3:26 AM 62.6 °F 59.0 °F 88% 29.84 in 5.0 mi WSW 13.8 mph 19.6 mph 0.01 in Rain Light Rain
3:53 AM 59.0 °F 57.0 °F 93% 29.84 in 9.0 mi West 16.1 mph - 0.02 in Rain Light Rain
4:53 AM 59.0 °F 57.0 °F 93% 29.82 in 10.0 mi WSW 21.9 mph - 0.06 in Rain Light Rain
5:53 AM 59.0 °F 55.9 °F 90% 29.83 in 4.0 mi West 20.7 mph 26.5 mph 0.02 in Rain Light Rain
6:11 AM 57.2 °F 55.4 °F 94% 29.83 in 2.5 mi West 17.3 mph - 0.00 in Rain Light Rain
6:15 AM 57.2 °F 55.4 °F 94% 29.82 in 3.0 mi WSW 16.1 mph - 0.00 in Rain Light Rain
6:31 AM 57.2 °F 55.4 °F 94% 29.82 in 6.0 mi WSW 18.4 mph - 0.01 in Rain Light Rain
6:53 AM 57.9 °F 55.0 °F 90% 29.83 in 10.0 mi West 20.7 mph 29.9 mph 0.01 in   Overcast
7:53 AM 52.0 °F 50.0 °F 93% 29.86 in 10.0 mi West 25.3 mph 32.2 mph N/A   Overcast
8:53 AM 53.1 °F 50.0 °F 89% 29.85 in 10.0 mi West 24.2 mph 29.9 mph N/A   Mostly Cloudy
9:53 AM 53.1 °F 50.0 °F 89% 29.86 in 10.0 mi West 24.2 mph 29.9 mph N/A   Mostly Cloudy
10:53 AM 52.0 °F 48.9 °F 89% 29.86 in 10.0 mi West 24.2 mph 33.4 mph N/A   Mostly Cloudy
11:53 AM 52.0 °F 48.9 °F 89% 29.88 in 9.0 mi West 24.2 mph 33.4 mph 0.00 in Rain Light Rain
12:12 PM 53.6 °F 48.2 °F 82% 29.88 in 10.0 mi West 24.2 mph 32.2 mph 0.00 in Rain Light Rain
12:53 PM 53.1 °F 48.9 °F 86% 29.88 in 10.0 mi West 23.0 mph 31.1 mph 0.00 in Rain Light Rain
1:48 PM 53.6 °F 48.2 °F 82% 29.90 in 8.0 mi West 21.9 mph 28.8 mph 0.00 in Rain Light Rain
1:53 PM 53.1 °F 48.9 °F 86% 29.91 in 9.0 mi West 21.9 mph 28.8 mph 0.00 in Rain Light Rain
2:53 PM 52.0 °F 48.9 °F 89% 29.91 in 7.0 mi West 23.0 mph - 0.00 in Rain Light Rain
3:53 PM 53.1 °F 48.9 °F 86% 29.92 in 10.0 mi West 24.2 mph - 0.00 in Rain Light Rain
4:53 PM 52.0 °F 48.9 °F 89% 29.92 in 8.0 mi West 23.0 mph - 0.00 in Rain Light Rain
5:00 PM 51.8 °F 48.2 °F 88% 29.92 in 8.0 mi West 23.0 mph - 0.00 in   Overcast
5:45 PM 53.6 °F 48.2 °F 82% 29.92 in 10.0 mi West 20.7 mph - 0.00 in   Overcast
5:53 PM 53.1 °F 48.9 °F 86% 29.92 in 10.0 mi West 20.7 mph - 0.00 in   Overcast
6:29 PM 51.8 °F 48.2 °F 88% 29.92 in 10.0 mi West 18.4 mph - N/A   Overcast
6:53 PM 52.0 °F 48.9 °F 89% 29.92 in 10.0 mi West 18.4 mph - N/A   Overcast
7:53 PM 51.1 °F 48.9 °F 92% 29.93 in 8.0 mi West 19.6 mph - N/A   Overcast
8:53 PM 51.1 °F 48.0 °F 89% 29.93 in 8.0 mi West 19.6 mph 26.5 mph N/A   Overcast
9:27 PM 50.0 °F 46.4 °F 87% 29.93 in 10.0 mi West 20.7 mph - N/A   Overcast
9:53 PM 50.0 °F 48.0 °F 93% 29.94 in 10.0 mi West 17.3 mph 23.0 mph N/A   Overcast
10:53 PM 51.1 °F 48.0 °F 89% 29.94 in 10.0 mi West 15.0 mph - N/A   Overcast
11:53 PM 51.1 °F 48.0 °F 89% 29.94 in 10.0 mi WNW 9.2 mph - N/A   Overcast